Content
SEND FEEDBACK

Daily
Averages
Monthly
Summary
Austria

KREMSMÜNSTER, AUSTRIA


Home > Europe > Austria
Elevation: 1275 feet     Latitude: 48 06N     Longitude: 014 06E

WEATHER
 
SELECT A DAY
Number of Records: 311,165;   Date Range: 7/1/96 - 7/30/14
 
SHARE

PRINT THIS DATA

[ ← Previous Day ]
WEATHER ALMANAC - JANUARY 31, 2013
[ Next Day → ]
[ °C ]   °F
Weather ElementAverageHighLow
Temperature47.2 °F51.8 °F (1:50 pm)42.8 °F (5:20 am)
Dewpoint34.3 °F41 °F (1:20 am)28.4 °F (8:50 pm)
Humidity60.5 %81 % (1:20 am)36 % (7:00 pm)
Barometer30.02 in30.16 in (10:00 am)29.89 in (9:20 pm)
Wind Speed17.9 mph29.9 mph (10:20 pm)
Wind Gust48.3 mph (2:50 am)
Weather ElementAverage
Visibility9.8 mi
Wind DirectionW (264.7 °)

Weather ElementTotal
Precipitation---
Heating Degree Days17.7 (Base 65)
Averaged from 55 records on January 31, 2013
WEATHER CONDITIONS BREAKOUT
WIND DIRECTION BREAKOUT
WEATHER BY HOUR - JANUARY 31, 2013
[ °C ]   °F
Local TimeTemperatureDewpointHumidityBarometerVisibilityWind DirectionWind SpeedGust SpeedPrecipitationEventsConditions
12:50 AM48.2 °F39.2 °F71 %30.01 in6.2 miWSW (240°)18.4 mphMostly Cloudy
1:00 AM47.0 °F40.0 °F67 %30.04 in28.0 miWSW (240°)17.9 mph
1:20 AM46.4 °F41.0 °F81 %30.04 in6.2 miWSW (250°)25.3 mph36.8 mphRainLight Rain Showers
1:50 AM46.4 °F41.0 °F81 %30.04 in6.2 miWSW (240°)17.3 mphRainLight Rain Showers
2:20 AM46.4 °F39.2 °F76 %30.06 in6.2 miWSW (240°)15.0 mph29.9 mphScattered Clouds
2:50 AM46.4 °F37.4 °F71 %30.06 in6.2 miWest (260°)28.8 mph48.3 mphScattered Clouds
3:20 AM46.4 °F39.2 °F76 %30.06 in6.2 miWest (270°)18.4 mphMostly Cloudy
3:50 AM46.4 °F37.4 °F71 %30.06 in6.2 miWSW (250°)16.1 mphMostly Cloudy
4:00 AM46.0 °F38.0 °F64 %30.09 in28.0 miWSW (250°)15.7 mphPartly Cloudy
4:20 AM44.6 °F37.4 °F76 %30.06 in6.2 miWSW (250°)15.0 mphScattered Clouds
4:50 AM44.6 °F35.6 °F71 %30.06 in6.2 miWest (270°)15.0 mphPartly Cloudy
5:20 AM42.8 °F35.6 °F76 %30.09 in6.2 miWNW (290°)11.5 mphScattered Clouds
5:50 AM42.8 °F33.8 °F70 %30.06 in6.2 miWest (280°)15.0 mphScattered Clouds
6:20 AM44.6 °F33.8 °F66 %30.06 in6.2 miWest (280°)20.7 mphMostly Cloudy
6:50 AM42.8 °F35.6 °F76 %30.09 in6.2 miWNW (290°)24.2 mph35.7 mphRainLight Rain Showers
7:00 AM43.0 °F35.0 °F65 %30.12 in28.0 miWNW (290°)24.6 mphRainLight Rain Showers
7:20 AM42.8 °F35.6 °F76 %30.09 in6.2 miWest (280°)12.7 mphScattered Clouds
7:50 AM42.8 °F35.6 °F76 %30.09 in6.2 miWNW (300°)13.8 mphRainLight Rain Showers
8:20 AM42.8 °F35.6 °F76 %30.09 in6.2 miWest (280°)15.0 mphScattered Clouds
8:50 AM44.6 °F35.6 °F71 %30.12 in6.2 miWest (280°)17.3 mphScattered Clouds
9:20 AM44.6 °F35.6 °F71 %30.12 in6.2 miWest (280°)11.5 mphScattered Clouds
9:50 AM44.6 °F35.6 °F71 %30.12 in6.2 miWest (270°)18.4 mphScattered Clouds
10:00 AM44.0 °F36.0 °F64 %30.16 in31.0 miWest (270°)17.9 mphPartly Cloudy
10:20 AM46.4 °F35.6 °F66 %30.12 in6.2 miWest (270°)20.7 mphScattered Clouds
10:50 AM46.4 °F33.8 °F62 %30.12 in6.2 miWest (270°)27.6 mphScattered Clouds
11:20 AM48.2 °F33.8 °F58 %30.12 in6.2 miWest (270°)21.9 mphScattered Clouds
11:50 AM48.2 °F33.8 °F58 %30.12 in6.2 miWest (280°)24.2 mphScattered Clouds
12:20 PM48.2 °F32.0 °F54 %30.12 in6.2 miWest (270°)23.0 mphMostly Cloudy
12:50 PM48.2 °F33.8 °F58 %30.09 in6.2 miWest (260°)18.4 mphMostly Cloudy
1:00 PM49.0 °F33.0 °F43 %30.11 in44.0 miWest (260°)17.9 mphPartly Cloudy
1:20 PM50.0 °F32.0 °F50 %30.06 in6.2 miWest (260°)18.4 mphMostly Cloudy
1:50 PM51.8 °F32.0 °F47 %30.04 in6.2 miWest (280°)16.1 mphScattered Clouds
2:20 PM51.8 °F32.0 °F47 %30.01 in6.2 miWest (260°)18.4 mphPartly Cloudy
2:50 PM51.8 °F33.8 °F50 %29.98 in6.2 miWest (260°)12.7 mphPartly Cloudy
3:20 PM51.8 °F33.8 °F50 %29.95 in6.2 miWSW (250°)10.4 mphPartly Cloudy
3:50 PM50.0 °F35.6 °F58 %29.95 in6.2 miWest (260°)12.7 mphScattered Clouds
4:00 PM51.0 °F35.0 °F42 %29.97 in47.0 miWest (260°)13.4 mphScattered Clouds
4:20 PM50.0 °F33.8 °F54 %29.95 in6.2 miWSW (250°)13.8 mphScattered Clouds
4:50 PM50.0 °F32.0 °F50 %29.92 in6.2 miWSW (250°)15.0 mphMostly Cloudy
5:20 PM48.2 °F32.0 °F54 %29.92 in6.2 miWSW (240°)9.2 mphMostly Cloudy
5:50 PM48.2 °F32.0 °F54 %29.92 in6.2 miSW (230°)6.9 mphMostly Cloudy
6:20 PM48.2 °F32.0 °F54 %29.92 in6.2 miWSW (250°)6.9 mphMostly Cloudy
6:50 PM50.0 °F30.2 °F47 %29.92 in6.2 miWest (270°)19.6 mphMostly Cloudy
7:00 PM49.0 °F30.0 °F36 %29.94 in25.0 miWest (270°)20.1 mphScattered Clouds
7:20 PM50.0 °F30.2 °F47 %29.92 in6.2 miWest (270°)18.4 mphMostly Cloudy
7:50 PM48.2 °F30.2 °F50 %29.92 in6.2 miWest (280°)15.0 mphMostly Cloudy
8:20 PM48.2 °F30.2 °F50 %29.92 in6.2 miWest (260°)17.3 mphMostly Cloudy
8:50 PM48.2 °F28.4 °F46 %29.92 in6.2 miWest (260°)19.6 mphMostly Cloudy
9:20 PM48.2 °F30.2 °F50 %29.89 in6.2 miWest (260°)20.7 mphMostly Cloudy
9:50 PM48.2 °F30.2 °F50 %29.89 in6.2 miWest (260°)21.9 mphMostly Cloudy
10:00 PM49.0 °F30.0 °F36 %29.93 in19.0 miWest (260°)22.4 mphScattered Clouds
10:20 PM50.0 °F32.0 °F50 %29.92 in6.2 miWest (280°)29.9 mph42.6 mphMostly Cloudy
10:50 PM48.2 °F35.6 °F62 %29.92 in6.2 miWest (270°)25.3 mph40.3 mphRainLight Rain Showers
11:20 PM46.4 °F35.6 °F66 %29.92 in6.2 miWest (270°)21.9 mphScattered Clouds
11:50 PM46.4 °F35.6 °F66 %29.92 in6.2 miWest (270°)21.9 mphMostly Cloudy
Hourly data recorded from LOWL, located miles away from Kremsmünster, Austria







STORIES FROM OUR PARTNERS